This is the latest recevied weather packets stored in our database for station/object SQ7FJB-2. If no packets are shown the sender has not sent any weather packets the latest 10 day(s).
| Time | Temp. | Humidity | Pressure | Rain* | Wind** | Luminosity | Snow |
|---|---|---|---|---|---|---|---|
| 1778151843 | 14.44° C | 88% | 1010.6 hPa | 0.25 mm | - | - | - |
| 1778151230 | 13.89° C | 89% | 1010.6 hPa | 0.25 mm | - | - | - |
| 1778150630 | 13.89° C | 89% | 1010.6 hPa | 0.25 mm | - | - | - |
| 1778150018 | 13.33° C | 89% | 1010.5 hPa | 0 mm | - | - | - |
| 1778149405 | 13.33° C | 89% | 1010.4 hPa | 0 mm | - | - | - |
| 1778148792 | 13.33° C | 88% | 1010.3 hPa | 0 mm | - | - | - |
| 1778148192 | 13.89° C | 88% | 1010 hPa | 0 mm | - | - | - |
| 1778147592 | 13.89° C | 88% | 1009.9 hPa | 0 mm | - | - | - |
| 1778146980 | 13.33° C | 90% | 1009.7 hPa | 0 mm | - | - | - |
| 1778146380 | 13.33° C | 91% | 1009.6 hPa | 0 mm | - | - | - |
| 1778145780 | 12.78° C | 92% | 1009.6 hPa | 0 mm | - | - | - |
| 1778145168 | 13.33° C | 92% | 1009.5 hPa | 0 mm | - | - | - |
| 1778144567 | 13.33° C | 91% | 1009.3 hPa | 0 mm | - | - | - |
| 1778143367 | 13.33° C | 92% | 1008.9 hPa | 0 mm | - | - | - |
| 1778142755 | 13.33° C | 91% | 1008.8 hPa | 0 mm | - | - | - |
| 1778142155 | 13.33° C | 91% | 1008.7 hPa | 0 mm | - | - | - |
| 1778141543 | 13.33° C | 91% | 1008.5 hPa | 0 mm | - | - | - |
| 1778140943 | 13.33° C | 91% | 1008.3 hPa | 0 mm | - | - | - |
| 1778140342 | 13.33° C | 90% | 1008.2 hPa | 0 mm | - | - | - |
| 1778139730 | 13.33° C | 91% | 1008.1 hPa | 0 mm | - | - | - |
| 1778139117 | 13.33° C | 92% | 1008 hPa | 0 mm | - | - | - |
| 1778138518 | 12.78° C | 93% | 1007.9 hPa | 0 mm | - | - | - |
| 1778137918 | 12.78° C | 93% | 1007.8 hPa | 0 mm | - | - | - |
| 1778137317 | 12.78° C | 93% | 1007.7 hPa | 0 mm | - | - | - |
| 1778136706 | 12.78° C | 93% | 1007.7 hPa | 0 mm | - | - | - |
* Rain latest hour (hover to see other rain measurements)
** Current wind speed in m/s (hover to see current wind gust speed)